Miscellaneous Local Product
Issued by NWS Hastings, NE

Home | Current Version | Previous Version | Graphics & Text | Print | Product List | Glossary On
Versions: 1 2 3 4 5 6 7 8 9 10 11 12 13 14 15 16 17 18 19 20 21 22 23 24 25 26 27 28 29 30 31 32 33 34 35 36 37 38 39 40 41 42 43 44 45 46 47 48 49 50
000
AXUS43 KGID 280602
MISGRI

GID CWA HOURLY WEATHER ROUNDUP
NATIONAL WEATHER SERVICE HASTINGS NE
100 AM CDT FRI AUG 28 2015

NOTE: "FAIR" INDICATES FEW OR NO CLOUDS BELOW 12,000 FEET WITH NO
SIGNIFICANT WEATHER AND/OR OBSTRUCTIONS TO VISIBILITY.

...SOUTH CENTRAL NEBRASKA...

CITY           SKY/WX    TMP DP  RH WIND       PRES   REMARKS
GRAND ISLAND   FAIR      75  65  70 SW16G31   29.84S
HASTINGS       FAIR      74  65  73 SW16G23   29.85S
KEARNEY        FAIR      72  64  78 SW9       29.86S
ORD            PTCLDY    68  65  90 SE5       29.84F
YORK           CLOUDY    70  68  94 NE7       29.87R
AURORA         FAIR      74  66  75 SW12      29.84R
LEXINGTON      CLEAR     70  67  92 NW3       29.88R
HOLDREGE       MOCLDY    72  64  75 CALM      29.87R
HEBRON         FAIR      77  60  56 S24G30    29.84F

...NEBRASKA PANHANDLE...

CITY           SKY/WX    TMP DP  RH WIND       PRES   REMARKS
CHADRON        PTCLDY    55  52  89 W7        30.03R
ALLIANCE       PTCLDY    53  51  93 W8        30.04F
SCOTTSBLUFF    MOCLDY    62  56  80 N5        30.08S
SIDNEY         PTCLDY    58  54  86 NW8       30.08F

...WESTERN AND NORTH CENTRAL NEBRASKA...

CITY           SKY/WX    TMP DP  RH WIND       PRES   REMARKS
VALENTINE      NOT AVBL
AINSWORTH      CLOUDY    70  69  98 N6        29.91F FOG
ONEILL         CLOUDY    70  69  97 E10       29.89F
BROKEN BOW     MOCLDY    70  67  90 N3        29.88F
IMPERIAL       CLEAR     66  60  81 NW12      30.00R
NORTH PLATTE   PTCLDY    68  65  90 N8        29.93S
MCCOOK         CLEAR     71  64  78 NW10      29.92R

...EASTERN NEBRASKA...

CITY           SKY/WX    TMP DP  RH WIND       PRES   REMARKS
NORFOLK        LGT RAIN  67  65  93 E17       29.84F
SO SIOUX CITY  RAIN      66  63  90 E9        29.97R
TEKAMAH        RAIN      68  66  93 E12       29.95S FOG
COLUMBUS       CLOUDY   N/A N/A N/A E7        29.87R
ALBION         CLOUDY    68  65  90 SE9G17    29.84S
OMAHA EPPLEY   TSTM      69  67  93 E6        29.98R
OFFUTT AFB     RAIN      68  67  94 NE7       29.95F
MILLARD        RAIN      70  67  92 CALM      29.95R
LINCOLN        TSTM      69  67  93 E17G25    29.90R FOG
NEBRASKA CITY  LGT RAIN  69  67  94 SE14      29.92F
BEATRICE       MOCLDY    69  66  89 S15G21    29.86F
FALLS CITY     FAIR      71  67  87 S9        29.94R

...NORTHERN KANSAS...

CITY           SKY/WX    TMP DP  RH WIND       PRES   REMARKS
GOODLAND       MOCLDY    69  60  73 NW9       30.01S
HILL CITY      FAIR      76  63  64 SW17      29.89R
NORTON         CLEAR     73  64  73 W8        29.89R
PHILLIPSBURG   CLEAR     79  64  61 SW8G16    29.87R
SMITH CENTER   MOCLDY    72  66  83 SE15G21   29.88R
HAYS           FAIR      77  59  53 S24G30    29.88F
RUSSELL        LGT RAIN  77  68  73 VRB3      29.92R
CONCORDIA      MOCLDY    75  66  73 S23G33    29.89R
SALINA         MOCLDY    76  69  79 S17       29.91S
TOPEKA         FAIR      70  67  90 E8        29.94F



USA.gov is the U.S. government's official web portal to all federal, state and local government web resources and services.